SCP
0 0 0 0 0 0 0 0 0 0 1 1 1 1 1 1 1 1 0 1 1 1 1 1 1 1 1 1 1 1 1 1 1 1 1 1 1 1 1 1 1 1 1 1 1 1 1 0 0
0 0 0 0 0 0 0 0 0 1 1 1 1 1 1 1 1 1 1 1 1 1 1 1 1 1 1 1 1 1 1 1 1 1 1 1 1 1 1 1 1 1 1 1 1 1 1 1 0
0 0 0 0 0 0 0 0 1 1 1 1 1 1 1 1 1 1 1 1 2 2 1 1 1 1 1 1 1 1 1 1 1 1 1 1 1 1 1 1 1 1 1 1 1 1 1 1 1
0 0 0 0 0 0 0 1 1 1 1 1 1 1 1 2 2 2 1 2 2 2 2 1 2 2 1 1 1 1 1 1 1 1 1 2 2 1 1 1 1 1 1 1 1 1 1 1 1
0 0 0 0 0 0 0 1 1 1 1 1 1 1 2 2 2 2 2 2 3 3 2 2 2 2 2 1 2 1 1 1 1 1 2 2 2 2 1 1 1 1 1 1 1 1 1 1 1
0 0 0 0 0 1 1 1 1 1 1 1 2 2 2 2 2 2 2 3 3 3 3 2 2 2 2 2 2 2 2 2 2 2 2 2 2 2 1 1 1 1 1 1 1 1 1 1 1
0 0 0 0 0 1 1 1 1 1 2 2 2 2 3 2 2 2 2 3 3 3 3 3 2 2 2 2 2 2 2 2 2 2 2 2 1 1 1 1 1 1 1 1 1 1 1 1 1
0 0 0 0 1 1 1 1 1 2 2 2 2 3 3 3 2 2 3 3 3 3 3 3 2 2 2 2 2 2 2 2 2 2 2 1 1 1 1 1 1 1 1 1 1 1 1 1 1
0 0 0 0 0 1 1 1 2 2 2 2 2 3 3 3 3 3 3 3 3 3 3 3 2 2 2 2 2 2 2 2 2 2 2 2 1 1 2 2 2 1 1 1 1 1 1 1 1
0 0 0 0 0 1 1 2 2 2 2 2 3 3 4 4 4 4 4 3 3 3 3 2 2 2 2 2 2 2 2 2 2 2 2 2 1 1 1 2 2 1 1 1 2 2 2 1 2
0 0 0 1 1 1 2 2 2 2 2 2 3 4 4 4 4 4 3 3 3 3 2 3 3 3 2 2 3 3 3 3 2 2 2 2 1 1 1 1 1 1 1 2 2 2 2 2 2
0 1 1 1 1 1 2 3 3 2 2 2 3 3 4 4 4 4 3 3 3 3 2 3 3 3 2 2 3 4 4 3 2 2 2 2 1 1 1 1 1 1 1 2 2 2 2 2 2
0 1 1 1 2 2 2 3 3 3 2 2 3 3 4 4 4 4 4 3 3 3 2 2 2 2 2 2 2 3 3 2 2 2 2 2 1 1 1 1 1 1 1 1 1 1 2 2 2
0 1 1 1 2 2 2 3 3 3 2 3 3 3 4 4 4 4 4 3 3 3 2 2 2 1 1 2 2 2 2 2 2 2 2 1 1 1 1 1 1 1 2 1 1 1 1 1 1
0 0 1 1 1 2 2 3 3 3 2 3 3 4 3 3 4 4 3 3 2 2 2 2 1 1 1 1 1 2 1 1 1 1 1 1 1 1 1 1 1 1 1 2 2 1 1 1 1
0 0 1 1 1 1 2 2 3 3 3 3 4 4 3 3 3 3 3 2 2 2 2 2 1 1 1 1 1 1 1 1 1 1 1 1 1 1 1 1 1 1 1 1 1 1 1 1 1
0 0 0 0 1 1 1 2 2 3 3 3 3 3 3 3 2 2 2 2 2 2 2 2 1 1 1 1 1 1 1 1 0 0 0 1 1 1 1 1 1 1 1 1 1 1 1 1 1
0 0 0 0 0 1 1 1 2 3 3 3 3 3 3 2 2 2 2 2 1 1 2 2 1 1 1 1 1 1 1 1 0 0 0 1 1 1 1 1 1 1 1 1 1 1 1 1 1
0 0 0 0 0 0 1 1 2 3 3 3 3 3 3 3 2 2 2 2 1 1 2 2 1 1 1 1 1 1 1 1 0 0 0 1 1 1 1 1 1 1 1 1 1 1 1 1 0
0 0 0 0 0 0 1 1 2 3 3 3 3 3 3 3 3 2 2 1 1 2 2 1 1 1 1 1 1 1 1 0 0 0 0 0 0 1 0 0 0 1 1 1 1 1 1 1 0
0 0 0 0 0 1 1 1 2 3 3 3 3 3 2 2 3 2 2 1 1 1 1 1 1 1 1 1 1 1 0 0 0 0 0 0 0 0 0 0 0 0 0 1 1 1 1 1 1
0 0 0 0 0 0 1 1 1 2 2 3 3 3 2 2 2 2 2 2 1 1 1 1 1 1 1 1 0 0 0 0 0 0 0 0 0 0 0 0 0 0 0 0 1 1 1 1 1
0 0 0 0 0 0 0 0 1 1 1 2 2 2 2 2 2 2 2 2 1 1 1 1 1 1 0 0 0 0 0 0 0 0 0 0 0 0 0 0 0 0 0 0 0 1 1 1 1
0 0 0 0 0 0 0 0 0 0 1 1 1 2 2 2 2 2 2 1 1 1 0 0 0 0 0 0 0 0 0 0 0 0 0 0 0 0 0 0 0 0 0 0 0 1 1 1 1
0 0 0 0 0 0 0 0 0 0 0 1 1 2 3 2 2 1 1 1 1 0 0 0 0 0 0 0 0 0 0 0 0 0 0 0 0 0 0 0 0 0 0 0 0 0 1 1 1
0 0 0 0 0 0 0 0 0 0 0 1 1 3 3 3 2 1 1 1 0 0 0 0 0 0 0 0 0 0 0 0 0 0 0 0 0 0 0 0 0 0 0 0 0 0 0 0 0
0 0 0 0 0 0 0 0 0 0 0 1 1 3 3 3 2 1 1 0 0 0 0 0 0 0 0 0 0 0 0 0 0 0 0 0 0 0 0 0 0 0 0 0 0 0 0 0 0
0 0 0 0 0 0 0 0 0 0 0 1 1 2 3 2 1 1 0 0 0 0 0 0 0 0 0 0 0 0 0 0 0 0 0 0 0 0 0 0 0 0 0 0 0 0 0 0 0
0 0 0 0 0 0 0 0 0 0 1 1 1 2 2 2 1 1 0 0 0 0 0 0 0 0 0 0 0 0 0 0 0 0 0 0 0 0 0 0 0 0 0 0 0 0 0 0 0
0 0 0 0 0 0 0 0 0 0 1 1 1 1 2 2 1 1 0 0 0 0 0 0 0 0 0 0 0 0 0 0 0 0 0 0 0 0 0 0 0 0 0 0 0 0 0 0 0
Wind_Speed
5 3 2 4 6 5 1 3 2 1 1 1 5 6 7 4 2 2 3 10 14 13 11 14 16 16 16 16 16 16 16 16 16 16 15 15 14 14 13 13 12 11 11 11 11 11 11 11 11
2 1 4 6 6 2 3 3 2 1 3 5 6 6 6 4 4 5 5 9 14 13 10 11 16 16 16 16 16 15 16 16 15 15 15 14 14 13 12 12 12 11 11 10 10 10 10 10 10
1 3 5 6 4 4 2 1 2 3 4 4 5 5 5 3 4 4 6 12 12 11 8 11 16 15 15 15 15 15 15 15 14 14 14 13 13 12 11 11 11 11 10 10 10 9 9 9 9
3 5 6 5 1 3 3 2 3 2 4 5 5 6 4 4 2 6 12 13 13 10 8 10 15 15 14 15 15 15 14 14 13 13 13 12 12 11 11 11 10 10 10 9 9 9 8 8 7
4 5 6 3 2 3 3 2 2 2 3 4 5 5 4 5 9 13 12 12 12 9 7 9 13 13 13 13 14 14 13 13 12 12 11 11 10 10 10 10 9 9 9 9 8 8 7 6 6
5 5 5 0 3 3 3 1 2 4 4 4 5 5 3 4 9 11 11 10 10 10 8 8 13 13 12 12 12 12 11 11 11 10 10 9 9 9 9 8 8 8 7 7 7 7 6 5 4
5 5 4 2 2 3 1 2 2 4 5 3 4 5 4 5 7 10 10 9 8 8 7 6 7 9 11 11 11 11 10 9 9 8 8 8 8 8 8 7 7 7 6 6 6 6 5 4 3
5 5 3 1 1 2 2 2 2 4 3 2 3 7 6 7 10 11 10 9 8 7 6 5 5 4 5 6 10 10 9 9 9 9 8 8 7 7 7 6 6 6 6 6 5 5 4 3 2
4 6 1 3 3 2 0 2 3 3 5 3 3 2 7 14 13 12 10 8 7 6 4 4 4 4 4 4 6 7 8 8 8 6 7 6 2 2 3 5 6 6 6 6 5 5 4 3 2
5 3 4 3 3 3 1 2 3 4 4 3 5 8 14 14 13 12 11 10 8 7 5 4 4 4 3 3 3 2 2 2 2 2 3 2 2 1 2 2 5 6 6 6 6 6 4 2 1
3 4 3 2 2 2 3 2 2 5 3 4 9 15 15 14 11 10 9 8 7 6 5 3 3 3 3 2 2 1 1 1 1 2 2 2 1 0 0 1 2 2 3 2 2 2 1 1 1
2 2 2 1 1 3 3 3 4 3 2 5 10 15 14 13 11 10 9 7 6 5 4 3 3 3 3 2 2 2 1 1 1 1 1 2 1 1 1 1 1 1 1 1 1 1 2 2 3
1 1 2 2 5 5 7 6 5 4 5 9 12 12 11 10 8 6 6 6 6 5 4 3 3 2 2 2 2 2 1 1 1 1 1 2 2 2 1 1 1 1 1 1 1 2 2 2 2
1 1 3 4 4 3 7 4 4 3 6 10 11 10 9 8 8 7 6 6 5 5 4 3 3 2 3 2 2 1 1 0 0 0 1 1 1 1 1 1 1 1 1 1 1 1 1 1 2
1 3 5 4 3 2 5 5 2 3 7 9 8 8 9 7 7 7 6 5 5 4 4 3 4 3 3 2 2 1 1 1 1 1 1 1 0 1 1 1 1 1 0 1 1 0 0 1 2
3 4 3 3 2 1 5 3 2 4 7 8 8 8 8 6 6 5 5 5 3 3 3 2 3 3 3 2 2 2 2 2 1 1 1 1 1 0 0 0 1 1 0 0 1 0 0 1 1
5 3 0 2 1 2 3 4 4 4 6 7 7 7 8 6 5 4 5 5 4 3 3 3 3 3 3 3 3 3 2 2 2 2 2 2 2 1 0 0 1 1 0 0 1 0 1 1 2
1 1 0 2 1 3 3 2 3 4 5 6 6 6 6 6 5 4 4 5 5 4 3 4 4 3 4 3 3 3 3 3 3 3 3 3 2 2 1 0 1 1 0 0 0 1 1 1 1
4 3 1 2 1 3 3 2 3 4 4 5 6 6 7 6 4 4 3 4 5 4 4 3 4 3 3 2 2 2 1 1 2 3 4 4 3 3 2 2 1 1 0 1 1 1 1 1 0
3 2 1 1 1 3 3 1 1 4 5 5 6 6 6 5 4 4 3 3 4 4 3 3 3 2 2 2 1 1 2 1 2 2 4 4 4 3 3 3 2 2 1 1 1 0 1 1 1
2 4 4 3 2 4 3 2 1 2 2 2 3 4 4 6 7 5 4 3 3 4 4 3 3 3 2 2 2 2 3 2 2 3 3 4 4 4 3 3 3 2 2 1 1 1 1 1 1
2 4 6 4 3 1 1 1 3 2 3 3 3 4 4 5 5 5 5 4 4 3 4 4 3 3 2 2 2 3 2 2 1 1 1 3 4 4 4 3 3 3 2 2 2 1 1 1 1
3 3 5 4 4 2 2 1 5 1 3 5 4 4 4 5 6 6 6 5 4 4 4 4 4 3 2 3 3 3 3 2 1 1 2 3 3 4 4 4 3 3 2 2 2 2 1 0 1
5 6 6 5 5 1 1 2 5 3 5 4 3 3 4 5 5 5 5 5 4 4 4 4 4 3 3 3 3 3 4 3 3 2 2 2 2 3 4 4 3 3 2 3 2 2 2 1 0
4 6 4 4 4 4 1 2 6 4 3 4 4 3 3 5 6 6 7 6 6 5 4 4 5 3 3 3 3 3 3 3 3 2 1 2 2 2 3 3 3 3 3 3 3 2 2 1 1
3 6 7 5 4 3 1 3 5 2 1 1 1 2 3 4 5 5 6 6 6 6 5 4 4 3 3 3 3 3 3 2 2 1 1 1 1 1 2 3 3 3 4 4 3 3 2 2 2
4 2 4 6 2 0 3 4 4 1 2 1 2 4 4 4 5 5 4 4 5 5 4 4 4 3 3 3 3 3 3 3 2 1 1 1 1 1 2 2 3 3 4 4 3 3 3 3 2
4 7 5 5 5 2 3 3 4 3 2 1 3 4 3 4 4 4 4 4 4 3 3 3 3 3 3 3 2 2 2 2 2 2 2 2 1 2 2 3 3 3 4 3 3 3 3 3 3
2 3 5 4 4 5 3 5 3 4 3 3 3 3 4 4 4 4 4 4 4 4 4 3 3 3 3 3 3 2 2 2 2 2 2 1 2 2 2 2 3 3 3 3 3 3 3 3 3
1 3 6 4 2 3 3 5 3 1 3 3 3 3 3 4 4 5 5 4 4 3 3 3 3 3 2 2 2 2 2 2 2 2 2 1 2 2 2 2 3 3 3 3 3 4 4 4 4
Wind_Direction
315 326 79 64 57 52 278 263 242 304 75 100 119 114 118 111 155 169 104 132 132 137 141 143 141 136 131 128 126 124 123 122 122 123 124 126 129 131 133 133 132 130 127 124 123 122 122 122 125
311 20 59 61 84 72 280 267 256 199 134 102 80 78 81 72 65 92 112 131 133 136 137 142 142 138 134 132 131 129 128 127 126 126 127 129 130 132 133 133 133 131 129 128 127 126 126 127 130
297 61 81 74 102 170 237 266 124 80 67 82 85 64 74 82 106 110 130 134 129 131 132 146 143 141 138 136 136 135 133 132 131 131 131 132 132 132 133 134 134 133 133 133 132 131 131 132 135
83 52 56 72 153 225 223 203 124 102 53 53 93 80 61 30 100 122 131 134 129 129 132 145 143 142 142 142 141 140 138 138 137 136 136 136 135 135 135 136 137 138 138 138 138 136 134 134 136
61 76 64 46 285 273 255 246 162 111 86 73 89 89 48 19 102 120 130 134 133 131 132 142 143 144 145 146 145 145 144 143 142 141 140 139 138 138 139 140 142 143 144 144 143 141 137 136 137
58 67 82 49 294 291 285 291 118 100 96 87 87 91 65 100 115 125 127 129 132 134 131 139 145 148 150 151 150 150 149 149 147 145 144 144 144 144 145 146 149 150 152 152 151 149 146 142 138
97 93 129 185 278 306 317 20 103 112 105 99 107 106 112 130 124 123 120 119 123 129 129 132 144 150 154 154 154 153 153 151 149 150 151 153 155 155 156 157 159 162 164 164 163 162 160 156 153
115 100 100 204 208 273 316 35 56 90 105 75 97 136 153 152 131 120 117 118 121 123 126 127 130 134 141 151 159 159 158 158 158 161 163 167 170 171 174 171 176 178 181 183 182 183 183 183 193
85 76 125 218 192 225 317 83 60 52 85 57 45 110 130 133 129 125 125 124 130 132 125 127 126 124 126 139 162 163 165 167 166 168 173 169 159 174 188 190 195 199 201 203 203 203 206 215 241
86 118 225 225 199 178 137 104 121 94 71 74 81 97 123 135 138 141 145 147 151 152 146 135 136 135 134 150 135 129 145 149 149 148 158 133 136 185 211 226 216 217 217 216 219 224 226 227 234
128 182 238 272 212 146 121 96 78 117 125 160 145 137 140 142 145 148 149 149 153 153 148 143 140 138 138 133 129 119 106 113 122 140 147 140 148 167 242 271 263 255 240 230 236 239 221 212 223
133 269 243 283 68 93 120 114 78 66 147 135 139 141 146 152 154 155 151 146 143 139 133 127 134 136 132 121 125 120 118 128 141 146 139 142 158 196 226 230 237 238 219 220 228 227 233 233 242
145 297 359 60 72 84 84 76 87 75 96 116 126 134 148 144 139 133 132 133 129 127 127 122 111 113 122 117 122 118 132 152 158 167 195 180 185 209 225 237 233 222 194 197 228 235 243 249 257
153 75 34 30 59 64 93 72 73 102 114 122 132 139 143 141 136 130 130 134 140 142 133 118 118 118 111 110 115 126 131 110 79 25 292 219 212 214 216 239 255 238 202 183 219 234 254 268 260
80 65 29 16 46 88 96 58 68 132 127 129 136 138 135 132 136 146 154 148 150 147 139 142 135 123 121 121 122 105 85 72 49 8 357 1 130 199 209 217 257 265 227 167 171 198 246 269 267
57 60 42 332 42 64 103 155 174 146 143 145 148 148 145 143 147 148 142 133 135 134 130 132 123 119 122 116 104 85 74 75 57 47 33 17 33 87 108 281 273 287 307 212 190 171 253 283 285
37 73 82 316 14 88 125 180 181 163 157 157 162 159 158 155 147 146 144 136 126 117 117 103 91 104 107 100 92 82 72 60 43 36 35 18 12 21 63 311 287 285 254 268 273 218 188 242 268
185 138 187 254 301 109 127 163 158 167 169 171 169 166 166 168 167 154 141 126 116 102 97 96 88 89 94 88 80 70 65 54 49 40 32 27 16 18 20 264 283 272 250 288 285 249 225 240 269
153 152 199 261 252 124 146 145 178 173 174 185 183 180 177 174 152 136 128 120 113 103 98 100 101 101 103 98 97 89 74 47 39 37 38 38 30 24 24 11 3 354 291 275 261 227 218 249 247
142 147 193 314 35 126 126 93 188 189 202 201 194 194 185 162 149 146 134 122 124 124 114 113 113 109 98 95 105 110 109 79 58 36 36 32 33 29 35 25 8 3 15 12 333 247 188 212 210
179 177 184 177 70 59 100 10 271 253 236 212 189 187 192 179 173 168 159 146 134 136 134 131 112 92 84 89 90 86 70 57 42 32 28 19 24 30 32 28 18 4 9 357 326 295 202 198 217
226 207 162 145 114 1 85 246 275 258 257 223 209 197 194 183 178 175 166 163 152 141 118 111 105 94 89 96 107 111 106 95 64 42 34 21 26 29 34 26 20 11 2 359 339 341 264 185 214
180 103 112 109 121 79 26 143 284 324 261 249 228 215 198 181 176 180 172 169 147 125 114 108 95 82 84 92 104 108 100 102 91 67 54 34 21 24 28 27 20 12 4 3 354 346 356 330 193
124 77 63 55 73 64 250 169 275 240 237 252 236 219 194 177 173 170 155 140 127 116 108 104 95 76 68 83 96 113 118 117 104 75 51 31 17 15 18 23 16 7 9 6 354 353 14 19 44
89 93 43 7 13 254 246 179 250 256 245 244 242 232 189 170 165 163 154 150 144 132 122 114 108 93 78 83 85 97 107 110 108 99 70 43 21 9 2 8 3 358 5 5 1 9 18 18 34
159 137 155 191 216 265 310 235 256 276 290 264 198 147 128 134 138 148 152 154 153 145 136 124 116 108 103 96 85 81 87 91 91 89 90 65 28 347 346 360 5 5 15 19 14 16 14 22 24
127 135 153 127 131 171 273 278 297 332 16 48 107 117 128 130 127 133 136 140 145 141 135 133 124 113 105 103 96 84 80 86 87 70 62 53 19 358 4 8 12 13 21 21 18 22 14 16 15
121 140 102 115 146 232 276 257 247 234 236 163 135 136 133 127 120 115 120 129 131 127 116 105 108 112 107 102 95 95 88 85 83 73 54 38 24 24 18 20 19 21 23 20 23 18 11 19 4
95 92 102 109 145 158 235 268 247 222 198 175 161 155 148 137 126 117 109 114 115 113 114 111 103 103 100 96 95 94 84 84 83 75 52 36 35 30 29 23 20 23 20 15 22 14 11 18 8
148 152 143 145 197 169 175 264 321 207 165 150 150 138 128 123 119 116 112 107 101 104 110 115 115 112 118 122 107 98 86 79 76 67 48 44 36 28 25 21 22 20 20 18 22 12 14 16 6